Stations météo

réclame
Mon MeteoGroup
Goteborg/Landvetter, Suède (2526): Température de l'air & dewpoint: 18.01.2018 10:00:00 - 24.01.2018 10:00:00 (CET)Goteborg/Landvetter, Suède (2526): Vitesse du vent: 18.01.2018 10:00:00 - 24.01.2018 10:00:00 (CET)Goteborg/Landvetter, Suède (2526): Direction du vent: 18.01.2018 10:00:00 - 24.01.2018 10:00:00 (CET)Goteborg/Landvetter, Suède (2526): reduced air pressure: 18.01.2018 10:00:00 - 24.01.2018 10:00:00 (CET)Goteborg/Landvetter, Suède (2526): visibility: 18.01.2018 10:00:00 - 24.01.2018 10:00:00 (CET)
Date & Time tt [°C] td [°C] ff [km/h] ff [knt] dd ppp [hPa] vv [km]
24.01.2018 10:00:00 3,9 3,3 32 18 SSW 1004,0 8
24.01.2018 09:00:00 4,1 3,5 25 14 SSW 1004,1 10
24.01.2018 08:00:00 4,5 3,9 22 12 SW 1003,8 11
24.01.2018 07:00:00 4,9 4,3 22 12 WSW 1003,2 12
24.01.2018 06:00:00 4,9 4,6 25 14 SW 1002,9 6
24.01.2018 05:00:00 5,1 4,8 29 16 WSW 1001,7 4,4
24.01.2018 04:00:00 4,6 4,3 36 19 SW 1000,8 0,2
24.01.2018 03:00:00 3,3 2,9 32 18 SSW 1000,8 6
24.01.2018 02:00:00 2,8 2,4 40 21 SSW 1001,4 5
24.01.2018 01:00:00 2,7 2,1 40 21 S 1002,6 4,3
24.01.2018 00:00:00 2,3 1,7 40 21 S 1003,6 8
23.01.2018 23:00:00 0,9 0,3 36 19 S 1005,1 8
23.01.2018 22:00:00 0,2 -0,2 29 16 S 1007,2 2,2
23.01.2018 21:00:00 0,3 -0,1 29 16 SSE 1008,7 2,2
23.01.2018 20:00:00 -0,1 -0,5 25 14 S 1010,4 0,5
23.01.2018 19:00:00 -0,4 -1,0 29 16 S 1011,6 0,6
23.01.2018 18:00:00 -0,6 -1,2 25 14 S 1012,8 2,5
23.01.2018 17:00:00 -0,7 -1,5 22 12 S 1013,5 7
23.01.2018 16:00:00 -0,9 -1,7 22 12 S 1014,7 3,2
23.01.2018 15:00:00 -0,8 -2,2 22 12 S 1015,6 7
23.01.2018 14:00:00 -1,2 -2,9 18 10 S 1016,5 12
23.01.2018 13:00:00 -1,8 -3,8 18 10 SSE 1016,3 12
23.01.2018 12:00:00 -2,0 -4,0 25 14 SSE 1017,4 14
23.01.2018 11:00:00 -2,4 -4,6 22 12 SSE 1017,8 14
23.01.2018 10:00:00 -2,5 -4,5 18 10 SSE 1018,2 15
23.01.2018 09:00:00 -2,9 -4,8 18 10 SSE 1018,5 15
23.01.2018 08:00:00 -3,3 -4,7 18 10 SE 1018,0 12
23.01.2018 07:00:00 -3,3 -4,6 14 8 SE 1017,7 12
23.01.2018 06:00:00 -3,2 -4,5 14 8 ESE 1017,8 11
23.01.2018 05:00:00 -3,2 -4,3 14 8 SE 1018,1 12
23.01.2018 04:00:00 -3,2 -4,5 14 8 SE 1017,4 16
23.01.2018 03:00:00 -3,0 -4,4 11 6 SE 1017,5 16
23.01.2018 02:00:00 -2,8 -4,2 14 8 SE 1016,9 18
23.01.2018 01:00:00 -2,6 -4,0 11 6 SSE 1016,8 20
23.01.2018 00:00:00 -2,5 -4,1 11 6 SE 1016,3 19
22.01.2018 23:00:00 -2,1 -3,8 11 6 SE 1015,6 20
22.01.2018 22:00:00 -1,9 -3,5 11 6 SE 1014,8 19
22.01.2018 21:00:00 -1,9 -3,6 11 6 SE 1014,5 21
22.01.2018 20:00:00 -1,9 -3,8 7 4 ESE 1014,4 30
22.01.2018 19:00:00 -2,0 -4,0 7 4 ESE 1014,0 40
22.01.2018 18:00:00 -2,0 -4,3 7 4 E 1013,4 50
22.01.2018 17:00:00 -2,0 -4,7 11 6 SE 1012,9 50
22.01.2018 16:00:00 -1,8 -4,6 11 6 ESE 1012,6 50
22.01.2018 15:00:00 -1,7 -4,2 11 6 ESE 1012,4 45
22.01.2018 14:00:00 -1,7 -4,4 11 6 SE 1012,1 50
22.01.2018 13:00:00 - - - - - - -
22.01.2018 12:00:00 - - - - - - -
22.01.2018 11:00:00 - - - - - - -
22.01.2018 10:00:00 -2,9 -3,9 14 8 ESE 1012,7 17
22.01.2018 09:00:00 -3,3 -4,4 11 6 ESE 1012,8 30
22.01.2018 08:00:00 -3,8 -4,9 11 6 ESE 1012,8 45
22.01.2018 07:00:00 -4,1 -5,3 11 6 ESE 1012,8 30
22.01.2018 06:00:00 -4,3 -5,5 7 4 E 1013,0 50
22.01.2018 05:00:00 -4,1 -5,2 11 6 ESE 1013,4 50
22.01.2018 04:00:00 -4,0 -5,1 14 8 ESE 1013,7 35
22.01.2018 03:00:00 -3,4 -4,4 14 8 SSE 1014,6 50
22.01.2018 02:00:00 -2,9 -3,7 11 6 SE 1014,6 28
22.01.2018 01:00:00 -2,5 -3,3 11 6 SE 1015,1 40
22.01.2018 00:00:00 -2,7 -3,5 11 6 SE 1015,5 35
21.01.2018 23:00:00 -2,6 -3,4 11 6 SE 1015,8 45
21.01.2018 22:00:00 -2,9 -3,7 7 4 SE 1015,9 50
21.01.2018 21:00:00 -3,0 -3,8 11 6 SE 1016,0 30
21.01.2018 20:00:00 -2,4 -3,2 11 6 SE 1016,3 50
21.01.2018 19:00:00 -2,3 -3,1 11 6 SE 1016,5 45
21.01.2018 18:00:00 -2,2 -3,3 11 6 SE 1016,4 7
21.01.2018 17:00:00 -2,2 -3,3 7 4 ESE 1016,5 14
21.01.2018 16:00:00 -1,8 -3,2 11 6 ESE 1016,4 40
21.01.2018 15:00:00 -1,6 -3,0 7 4 ESE 1016,0 50
21.01.2018 14:00:00 -1,4 -3,1 11 6 ESE 1015,6 50
21.01.2018 13:00:00 -1,2 -2,9 11 6 E 1015,3 50
21.01.2018 12:00:00 -1,4 -3,1 7 4 E 1014,8 50
21.01.2018 11:00:00 -1,6 -3,3 4 2 ENE 1014,3 45
21.01.2018 10:00:00 -1,9 -3,5 7 4 E 1013,6 40
21.01.2018 09:00:00 -1,8 -3,4 11 6 ESE 1012,8 50
21.01.2018 08:00:00 -1,7 -3,3 11 6 E 1012,1 50
21.01.2018 07:00:00 -1,6 -3,0 7 4 ENE 1011,5 8
21.01.2018 06:00:00 -1,5 -2,9 11 6 E 1010,8 10
21.01.2018 05:00:00 -1,4 -2,5 7 4 E 1010,0 50
21.01.2018 04:00:00 -1,3 -2,4 7 4 E 1009,1 50
21.01.2018 03:00:00 -1,4 -2,5 11 6 ENE 1008,5 50
21.01.2018 02:00:00 -1,5 -2,6 11 6 ENE 1007,6 45
21.01.2018 01:00:00 -1,3 -2,5 11 6 E 1007,0 50
21.01.2018 00:00:00 -1,4 -2,5 11 6 E 1006,5 50
20.01.2018 23:00:00 -1,2 -2,3 11 6 E 1005,9 50
20.01.2018 22:00:00 -1,1 -2,2 11 6 E 1005,5 50
20.01.2018 21:00:00 -1,0 -1,8 11 6 E 1004,9 28
20.01.2018 20:00:00 -1,0 -1,8 7 4 ESE 1004,5 40
20.01.2018 19:00:00 -1,0 -2,1 11 6 ESE 1004,3 50
20.01.2018 18:00:00 -1,1 -2,2 11 6 ESE 1003,9 50
20.01.2018 17:00:00 -1,1 -2,2 14 8 ESE 1003,6 50
20.01.2018 16:00:00 -1,0 -2,1 14 8 ESE 1003,5 50
20.01.2018 15:00:00 -1,0 -1,8 11 6 SE 1003,3 50
20.01.2018 14:00:00 -1,1 -1,9 14 8 ESE 1003,3 50
20.01.2018 13:00:00 -1,2 -2,0 14 8 ESE 1003,4 40
20.01.2018 12:00:00 -1,4 -2,2 14 8 ESE 1003,7 35
20.01.2018 11:00:00 -1,7 -2,5 14 8 SE 1004,0 15
20.01.2018 10:00:00 -2,0 -2,8 11 6 ESE 1004,0 7
20.01.2018 09:00:00 -2,2 -2,8 14 8 ESE 1003,9 24
20.01.2018 08:00:00 -2,4 -3,0 14 8 ESE 1003,4 6
20.01.2018 07:00:00 -2,6 -3,4 14 8 ESE 1003,3 2,3
20.01.2018 06:00:00 -2,7 -3,5 18 10 ESE 1003,5 15
20.01.2018 05:00:00 -3,0 -3,5 14 8 ESE 1003,9 18
20.01.2018 04:00:00 -3,0 -3,5 14 8 ESE 1003,9 18
20.01.2018 03:00:00 -3,2 -3,7 14 8 SE 1004,1 12
20.01.2018 02:00:00 -3,3 -4,1 14 8 ESE 1004,3 26
20.01.2018 01:00:00 -3,4 -4,0 18 10 ESE 1004,3 22
20.01.2018 00:00:00 -3,4 -3,9 18 10 ESE 1004,4 9
19.01.2018 23:00:00 -3,3 -4,1 14 8 ESE 1004,5 29
19.01.2018 22:00:00 -3,1 -4,2 14 8 SE 1004,7 45
19.01.2018 21:00:00 -3,3 -4,4 14 8 ESE 1004,3 50
19.01.2018 20:00:00 -3,3 -4,7 7 4 SE 1004,2 50
19.01.2018 19:00:00 -3,6 -5,1 11 6 SE 1004,0 50
19.01.2018 18:00:00 -4,1 -5,3 14 8 ESE 1003,8 50
19.01.2018 17:00:00 -3,9 -5,2 7 4 ESE 1003,9 50
19.01.2018 16:00:00 -3,1 -4,8 7 4 SE 1003,7 50
19.01.2018 15:00:00 -2,5 -4,5 7 4 SE 1003,2 50
19.01.2018 14:00:00 -2,2 -4,9 11 6 SSE 1002,9 50
19.01.2018 13:00:00 -2,4 -4,7 11 6 SE 1002,7 50
19.01.2018 12:00:00 -2,9 -5,4 11 6 SE 1002,7 40
19.01.2018 11:00:00 -3,6 -5,8 7 4 ESE 1002,3 50
19.01.2018 10:00:00 -5,1 -6,9 4 2 S 1002,0 50
19.01.2018 09:00:00 -5,6 -6,8 7 4 ESE 1001,5 50
19.01.2018 08:00:00 -5,4 -6,4 4 2 ENE 1000,8 50
19.01.2018 07:00:00 -5,9 -6,8 4 2 ENE 1000,2 11
19.01.2018 06:00:00 -5,8 -6,7 4 2 E 999,7 50
19.01.2018 05:00:00 -5,0 -5,8 4 2 ENE 999,1 40
19.01.2018 04:00:00 -5,2 -6,0 7 4 NE 998,6 0,4
19.01.2018 03:00:00 -3,9 -4,4 4 2 ESE 998,1 7
19.01.2018 02:00:00 -4,4 -4,9 7 4 E 997,7 30
19.01.2018 01:00:00 -3,9 -4,4 4 2 NE 997,2 0,8
19.01.2018 00:00:00 -2,0 -3,1 4 2 ENE 996,6 50
18.01.2018 23:00:00 -1,9 -3,0 4 2 ESE 996,4 50
18.01.2018 22:00:00 -1,5 -2,6 0 0 N 995,8 50
18.01.2018 21:00:00 -1,8 -2,6 7 4 NE 995,2 50
18.01.2018 20:00:00 -2,0 -2,8 7 4 ENE 994,5 50
18.01.2018 19:00:00 -1,4 -2,5 4 2 NE 993,7 50
18.01.2018 18:00:00 -1,1 -2,5 11 6 ENE 992,9 50
18.01.2018 17:00:00 -1,1 -2,2 11 6 ENE 992,4 50
18.01.2018 16:00:00 -1,1 -2,2 7 4 ENE 991,8 50
18.01.2018 15:00:00 -0,9 -2,0 11 6 E 991,2 9
18.01.2018 14:00:00 -0,6 -2,0 14 8 E 990,7 50
18.01.2018 13:00:00 -0,6 -1,7 14 8 ESE 990,6 50
18.01.2018 12:00:00 -0,6 -1,4 14 8 ESE 990,7 18
18.01.2018 11:00:00 -0,9 -1,7 14 8 ESE 990,6 45
18.01.2018 10:00:00 -1,0 -1,6 11 6 ESE 991,0 45

tt = Température de l'air
td = dewpoint
ff = Vitesse du vent
dd = Direction du vent
ppp = reduced air pressure
vv = visibility

stations d'obs. à proximité